When you browse on this site, cookies collect data to enhance your experience and personalize the content and advertising you see.
Visit our Privacy Policy to learn more. By continuing to use the site, you agree to this use of cookies and data.

Hourly Weather Kitzbuhel

Today, 12 July, Sunday

Time Temperature Precipitation Wind Pressure Humidity
00:00 +9°C° 0 mm 1 mps 681 mmHg 96%
01:00 +9°C° 0 mm 1 mps 681 mmHg 96%
02:00 +9°C° 0 mm 1 mps 681 mmHg 96%
03:00 +8°C° 0 mm 1 mps 681 mmHg 96%
04:00 +8°C° 0 mm 1 mps 681 mmHg 96%
05:00 +8°C° 0 mm 0 mps 681 mmHg 94%
06:00 +10°C° 0 mm 0 mps 682 mmHg 92%
07:00 +11°C° 0 mm 0 mps 682 mmHg 90%
08:00 +13°C° 0 mm 0 mps 683 mmHg 80%
09:00 +16°C° 0 mm 1 mps 683 mmHg 69%
10:00 +19°C° 0 mm 1 mps 683 mmHg 58%
11:00 +19°C° 0 mm 2 mps 683 mmHg 55%
12:00 +19°C° 0 mm 2 mps 683 mmHg 52%
13:00 +20°C° 0 mm 2 mps 683 mmHg 49%
14:00 +20°C° 0 mm 2 mps 683 mmHg 50%
15:00 +20°C° 0 mm 2 mps 683 mmHg 50%
16:00 +20°C° 0 mm 2 mps 682 mmHg 51%
17:00 +18°C° 0 mm 2 mps 682 mmHg 60%
18:00 +17°C° 0 mm 2 mps 682 mmHg 69%
19:00 +16°C° 0 mm 1 mps 682 mmHg 77%
20:00 +14°C° 0 mm 1 mps 682 mmHg 83%
21:00 +12°C° 0 mm 1 mps 682 mmHg 88%
22:00 +10°C° 0 mm 1 mps 681 mmHg 94%
23:00 +10°C° 0 mm 1 mps 681 mmHg 94%

Tomorrow, 13 July, Monday

Time Temperature Precipitation Wind Pressure Humidity
00:00 +10°C° 0 mm 1 mps 681 mmHg 94%
01:00 +10°C° 0 mm 1 mps 681 mmHg 93%
02:00 +9°C° 0 mm 1 mps 681 mmHg 94%
03:00 +9°C° 0 mm 1 mps 681 mmHg 94%
04:00 +9°C° 0 mm 1 mps 680 mmHg 94%
05:00 +11°C° 0 mm 1 mps 681 mmHg 88%
06:00 +12°C° 0 mm 0 mps 681 mmHg 83%
07:00 +13°C° 0 mm 0 mps 681 mmHg 77%
08:00 +16°C° 0 mm 0 mps 682 mmHg 69%
09:00 +20°C° 0 mm 1 mps 682 mmHg 61%
10:00 +22°C° 0 mm 1 mps 682 mmHg 53%
11:00 +21°C° 0 mm 2 mps 682 mmHg 49%
12:00 +23°C° 0 mm 2 mps 682 mmHg 46%
13:00 +24°C° 0 mm 2 mps 681 mmHg 43%
14:00 +23°C° 0 mm 2 mps 681 mmHg 45%
15:00 +23°C° 0 mm 2 mps 681 mmHg 48%
16:00 +23°C° 0 mm 2 mps 680 mmHg 50%
17:00 +20°C° 0.2 mm 2 mps 680 mmHg 62%
18:00 +18°C° 0.2 mm 2 mps 680 mmHg 73%
19:00 +18°C° 0.2 mm 1 mps 679 mmHg 85%
20:00 +15°C° 0.1 mm 1 mps 679 mmHg 88%
21:00 +12°C° 0.1 mm 0 mps 679 mmHg 92%
22:00 +11°C° 0.1 mm 0 mps 679 mmHg 95%
23:00 +10°C° 0 mm 0 mps 678 mmHg 95%

Day after tomorrow, 14 July, Tuesday

Time Temperature Precipitation Wind Pressure Humidity
00:00 +10°C° 0 mm 0 mps 678 mmHg 95%
01:00 +10°C° 0 mm 0 mps 678 mmHg 95%
02:00 +10°C° 0 mm 0 mps 678 mmHg 95%
03:00 +10°C° 0 mm 1 mps 678 mmHg 95%
04:00 +10°C° 0 mm 1 mps 677 mmHg 95%
05:00 +11°C° 0 mm 0 mps 678 mmHg 91%
06:00 +12°C° 0 mm 0 mps 678 mmHg 87%
07:00 +14°C° 0 mm 0 mps 678 mmHg 83%
08:00 +16°C° 0 mm 0 mps 678 mmHg 72%
09:00 +20°C° 0 mm 1 mps 679 mmHg 62%
10:00 +22°C° 0 mm 1 mps 679 mmHg 51%
11:00 +22°C° 0.1 mm 1 mps 679 mmHg 51%
12:00 +21°C° 0.1 mm 2 mps 678 mmHg 50%
13:00 +21°C° 0.1 mm 2 mps 678 mmHg 50%
14:00 +21°C° 0.4 mm 2 mps 678 mmHg 55%
15:00 +20°C° 0.4 mm 2 mps 678 mmHg 61%
16:00 +20°C° 0.4 mm 2 mps 677 mmHg 66%
17:00 +19°C° 0.7 mm 1 mps 677 mmHg 72%
18:00 +18°C° 0.7 mm 1 mps 677 mmHg 79%
19:00 +16°C° 0.7 mm 1 mps 677 mmHg 85%
20:00 +15°C° 0.1 mm 1 mps 677 mmHg 86%
21:00 +14°C° 0.1 mm 1 mps 677 mmHg 87%
22:00 +13°C° 0.1 mm 1 mps 677 mmHg 88%
23:00 +13°C° 0 mm 1 mps 677 mmHg 88%

15 July, Wednesday

Time Temperature Precipitation Wind Pressure Humidity
00:00 +13°C° 0 mm 1 mps 677 mmHg 89%
01:00 +12°C° 0 mm 1 mps 677 mmHg 90%
02:00 +12°C° 0 mm 1 mps 676 mmHg 90%
03:00 +12°C° 0 mm 1 mps 676 mmHg 90%
04:00 +12°C° 0 mm 1 mps 676 mmHg 91%
05:00 +13°C° 0 mm 1 mps 676 mmHg 87%
06:00 +14°C° 0 mm 1 mps 676 mmHg 84%
07:00 +14°C° 0 mm 0 mps 677 mmHg 81%
08:00 +18°C° 0.4 mm 1 mps 677 mmHg 78%
09:00 +19°C° 0.4 mm 1 mps 677 mmHg 76%
10:00 +20°C° 0.4 mm 1 mps 677 mmHg 73%
11:00 +21°C° 0.8 mm 1 mps 677 mmHg 72%
12:00 +21°C° 0.8 mm 1 mps 677 mmHg 71%
13:00 +21°C° 0.8 mm 1 mps 677 mmHg 70%
14:00 +20°C° 1.1 mm 1 mps 676 mmHg 78%
15:00 +19°C° 1.1 mm 1 mps 676 mmHg 85%
16:00 +18°C° 1.1 mm 1 mps 676 mmHg 93%
17:00 +16°C° 0.8 mm 1 mps 676 mmHg 94%
18:00 +15°C° 0.8 mm 1 mps 676 mmHg 95%
19:00 +13°C° 0.8 mm 0 mps 676 mmHg 96%
20:00 +13°C° 0.4 mm 0 mps 677 mmHg 96%
21:00 +13°C° 0.4 mm 0 mps 677 mmHg 97%
22:00 +13°C° 0.4 mm 0 mps 677 mmHg 97%
23:00 +12°C° 0.3 mm 0 mps 677 mmHg 97%

16 July, Thursday

Time Temperature Precipitation Wind Pressure Humidity
00:00 +12°C° 0.3 mm 0 mps 677 mmHg 97%
01:00 +12°C° 0.3 mm 0 mps 677 mmHg 98%
02:00 +13°C° 0.7 mm 1 mps 676 mmHg 98%
03:00 +13°C° 0.7 mm 1 mps 676 mmHg 99%
04:00 +13°C° 0.7 mm 1 mps 676 mmHg 99%
05:00 +12°C° 0.6 mm 1 mps 676 mmHg 99%
06:00 +12°C° 0.6 mm 1 mps 676 mmHg 99%
07:00 +12°C° 0.6 mm 1 mps 676 mmHg 99%
08:00 +12°C° 0.4 mm 1 mps 676 mmHg 98%
09:00 +12°C° 0.4 mm 1 mps 676 mmHg 98%
10:00 +12°C° 0.4 mm 1 mps 676 mmHg 98%
11:00 +12°C° 0.1 mm 1 mps 677 mmHg 97%
12:00 +12°C° 0.1 mm 1 mps 677 mmHg 97%
13:00 +12°C° 0.1 mm 1 mps 677 mmHg 96%
14:00 +13°C° 0.1 mm 1 mps 677 mmHg 94%
15:00 +13°C° 0.1 mm 1 mps 677 mmHg 93%
16:00 +13°C° 0.1 mm 1 mps 677 mmHg 92%
17:00 +13°C° 0 mm 1 mps 677 mmHg 93%
18:00 +12°C° 0 mm 1 mps 677 mmHg 94%
19:00 +12°C° 0 mm 1 mps 677 mmHg 96%
20:00 +12°C° 0 mm 1 mps 677 mmHg 95%
21:00 +11°C° 0 mm 1 mps 678 mmHg 95%
22:00 +10°C° 0 mm 1 mps 678 mmHg 95%
23:00 +10°C° 0 mm 1 mps 678 mmHg 96%

17 July, Friday

Time Temperature Precipitation Wind Pressure Humidity
00:00 +10°C° 0 mm 1 mps 678 mmHg 96%
01:00 +9°C° 0 mm 1 mps 677 mmHg 96%
02:00 +9°C° 0 mm 1 mps 677 mmHg 96%
03:00 +8°C° 0 mm 1 mps 677 mmHg 96%
04:00 +8°C° 0 mm 1 mps 677 mmHg 96%
05:00 +9°C° 0 mm 1 mps 678 mmHg 94%
06:00 +11°C° 0 mm 1 mps 678 mmHg 92%
07:00 +12°C° 0 mm 1 mps 678 mmHg 89%
08:00 +14°C° 0 mm 1 mps 679 mmHg 78%
09:00 +16°C° 0 mm 1 mps 679 mmHg 66%
10:00 +18°C° 0 mm 2 mps 680 mmHg 54%
11:00 +18°C° 0 mm 2 mps 679 mmHg 52%
12:00 +19°C° 0 mm 2 mps 679 mmHg 51%
13:00 +19°C° 0 mm 2 mps 679 mmHg 49%
14:00 +19°C° 0.1 mm 2 mps 679 mmHg 53%
15:00 +19°C° 0.1 mm 2 mps 679 mmHg 57%
16:00 +18°C° 0.1 mm 2 mps 679 mmHg 61%
17:00 +17°C° 0.2 mm 2 mps 679 mmHg 71%
18:00 +16°C° 0.2 mm 1 mps 679 mmHg 81%
19:00 +15°C° 0.2 mm 1 mps 679 mmHg 91%
20:00 +14°C° 0.1 mm 1 mps 679 mmHg 92%
21:00 +12°C° 0.1 mm 0 mps 679 mmHg 94%
22:00 +10°C° 0.1 mm 0 mps 679 mmHg 95%
23:00 +10°C° 0 mm 0 mps 679 mmHg 95%
Show more